SINOD-D 1

Last updated on Wed Nov 05 2025 00:03:48 GMT+0000 (Coordinated Universal Time)

1 40968U 15058E 25308.15595660 .00004447 00000+0 37267-3 0 9997 2 40968 64.7757 242.4387 0128257 142.9900 218.0148 14.93500058 83027
UTC large
Height (km)
Speed (km/s)
/
Latitude / Longitude
Inclination (degrees)
Orbital Period (minutes)
Azimuth
Elevation
Range (km)
Doppler Factor

Next 0 passes for location: London (51.5072 / 0.1276)

Sorry there are no passes over London.